Precipitable_Water
0.68 0.67 0.68 0.69 0.69 0.68 0.67 0.65 0.64 0.64 0.63 0.62 0.61 0.59 0.58 0.56 0.54 0.53 0.52 0.51 0.50 0.49 0.48 0.47 0.47 0.46 0.44 0.45 0.45 0.43 0.42 0.31 0.24 0.20 0.18 0.19 0.20 0.22 0.25 0.27 0.28 0.30 0.35 0.34 0.36 0.32 0.28 0.29 0.27 0.30 0.24 0.22 0.20 0.18 0.27 0.28 0.29 0.27 0.18 0.15 0.12 0.12 0.10 0.18 0.20 0.22 0.21 0.20 0.20 0.22 0.22 0.23 0.36 0.52 0.60 0.73 0.62 0.62 0.64 0.65 0.74 0.84 0.83 0.86 0.90 0.99 1.01 1.07
0.69 0.67 0.68 0.68 0.69 0.67 0.67 0.65 0.65 0.64 0.64 0.62 0.61 0.60 0.59 0.57 0.56 0.54 0.53 0.51 0.50 0.50 0.48 0.48 0.46 0.46 0.45 0.44 0.43 0.43 0.36 0.28 0.19 0.19 0.17 0.20 0.20 0.22 0.26 0.26 0.27 0.29 0.36 0.31 0.28 0.28 0.26 0.25 0.27 0.27 0.21 0.17 0.26 0.18 0.27 0.23 0.30 0.20 0.18 0.16 0.11 0.12 0.14 0.22 0.24 0.24 0.22 0.21 0.23 0.23 0.23 0.21 0.33 0.55 0.57 0.50 0.49 0.55 0.57 0.59 0.69 0.68 0.75 0.85 0.91 0.95 0.96 1.01
0.67 0.66 0.67 0.68 0.68 0.68 0.68 0.67 0.65 0.65 0.64 0.63 0.62 0.61 0.60 0.59 0.57 0.56 0.54 0.53 0.51 0.50 0.49 0.48 0.47 0.45 0.43 0.44 0.42 0.41 0.32 0.19 0.18 0.13 0.14 0.22 0.22 0.23 0.26 0.26 0.28 0.31 0.28 0.26 0.30 0.28 0.26 0.26 0.27 0.24 0.20 0.17 0.22 0.18 0.23 0.22 0.27 0.24 0.18 0.13 0.12 0.16 0.19 0.24 0.27 0.26 0.27 0.25 0.23 0.23 0.22 0.21 0.22 0.37 0.46 0.42 0.46 0.54 0.47 0.43 0.56 0.56 0.59 0.70 0.79 0.88 0.92 0.96
0.66 0.66 0.66 0.67 0.67 0.68 0.68 0.66 0.67 0.67 0.65 0.65 0.63 0.61 0.60 0.59 0.58 0.57 0.55 0.54 0.53 0.51 0.50 0.48 0.47 0.46 0.43 0.42 0.43 0.38 0.26 0.19 0.11 0.12 0.27 0.37 0.33 0.32 0.28 0.28 0.30 0.29 0.29 0.30 0.31 0.29 0.28 0.28 0.28 0.24 0.19 0.17 0.21 0.23 0.17 0.24 0.20 0.25 0.19 0.14 0.15 0.18 0.20 0.25 0.28 0.29 0.28 0.27 0.24 0.23 0.23 0.21 0.21 0.24 0.38 0.43 0.37 0.35 0.41 0.49 0.49 0.49 0.55 0.66 0.75 0.79 0.85 0.85
0.64 0.63 0.64 0.65 0.66 0.67 0.67 0.66 0.65 0.66 0.66 0.66 0.65 0.63 0.62 0.60 0.60 0.58 0.56 0.54 0.55 0.52 0.50 0.49 0.48 0.46 0.44 0.43 0.39 0.36 0.22 0.10 0.09 0.15 0.40 0.41 0.34 0.33 0.36 0.32 0.32 0.28 0.28 0.31 0.30 0.30 0.29 0.25 0.24 0.23 0.18 0.15 0.20 0.21 0.19 0.22 0.25 0.24 0.19 0.20 0.19 0.19 0.22 0.26 0.29 0.30 0.28 0.27 0.24 0.23 0.22 0.21 0.23 0.32 0.36 0.36 0.23 0.24 0.33 0.41 0.48 0.53 0.64 0.62 0.63 0.72 0.80 0.78
0.60 0.61 0.61 0.62 0.63 0.63 0.63 0.64 0.65 0.64 0.63 0.64 0.64 0.63 0.61 0.61 0.59 0.59 0.57 0.56 0.54 0.53 0.51 0.50 0.49 0.46 0.45 0.42 0.37 0.30 0.15 0.07 0.18 0.32 0.41 0.41 0.34 0.31 0.34 0.40 0.35 0.26 0.29 0.29 0.26 0.27 0.26 0.25 0.21 0.18 0.16 0.16 0.17 0.15 0.19 0.21 0.24 0.15 0.19 0.20 0.21 0.22 0.25 0.29 0.30 0.29 0.28 0.26 0.24 0.22 0.23 0.24 0.22 0.21 0.44 0.34 0.23 0.25 0.32 0.48 0.52 0.59 0.70 0.75 0.76 0.74 0.71 0.73
0.59 0.60 0.61 0.61 0.60 0.59 0.59 0.59 0.61 0.62 0.63 0.62 0.62 0.62 0.60 0.60 0.59 0.58 0.57 0.57 0.55 0.53 0.52 0.51 0.49 0.47 0.44 0.41 0.39 0.24 0.12 0.11 0.21 0.40 0.44 0.42 0.34 0.34 0.32 0.41 0.36 0.25 0.27 0.25 0.25 0.23 0.23 0.21 0.19 0.16 0.15 0.15 0.19 0.17 0.20 0.21 0.22 0.19 0.16 0.19 0.18 0.24 0.26 0.29 0.29 0.29 0.28 0.26 0.24 0.25 0.25 0.23 0.22 0.20 0.32 0.24 0.22 0.25 0.32 0.46 0.58 0.65 0.71 0.74 0.68 0.72 0.70 0.73
0.60 0.60 0.61 0.61 0.60 0.59 0.59 0.59 0.58 0.58 0.60 0.61 0.61 0.62 0.59 0.59 0.60 0.58 0.57 0.55 0.54 0.53 0.52 0.51 0.50 0.48 0.46 0.35 0.23 0.15 0.15 0.12 0.15 0.19 0.24 0.39 0.37 0.34 0.37 0.37 0.32 0.24 0.24 0.23 0.22 0.21 0.22 0.19 0.17 0.19 0.16 0.13 0.16 0.17 0.22 0.20 0.22 0.19 0.18 0.20 0.20 0.25 0.27 0.28 0.29 0.28 0.27 0.25 0.25 0.25 0.23 0.22 0.23 0.22 0.23 0.21 0.23 0.35 0.38 0.54 0.58 0.67 0.67 0.69 0.68 0.69 0.72 0.75
0.61 0.59 0.59 0.60 0.59 0.59 0.57 0.59 0.58 0.59 0.60 0.61 0.61 0.60 0.60 0.58 0.56 0.56 0.54 0.54 0.54 0.53 0.51 0.51 0.48 0.49 0.48 0.36 0.19 0.14 0.12 0.15 0.17 0.21 0.30 0.35 0.45 0.42 0.34 0.27 0.31 0.23 0.23 0.26 0.26 0.23 0.21 0.18 0.18 0.19 0.14 0.14 0.21 0.17 0.21 0.19 0.17 0.20 0.19 0.20 0.20 0.23 0.26 0.28 0.28 0.27 0.25 0.25 0.24 0.23 0.22 0.23 0.23 0.24 0.22 0.23 0.30 0.43 0.52 0.53 0.59 0.63 0.62 0.62 0.64 0.70 0.72 0.74
0.61 0.59 0.58 0.56 0.55 0.57 0.57 0.56 0.61 0.62 0.62 0.60 0.60 0.60 0.59 0.58 0.57 0.57 0.54 0.52 0.53 0.51 0.51 0.51 0.50 0.48 0.40 0.29 0.25 0.13 0.14 0.22 0.32 0.39 0.38 0.37 0.43 0.44 0.37 0.32 0.29 0.25 0.23 0.25 0.27 0.24 0.19 0.18 0.17 0.21 0.24 0.19 0.23 0.20 0.21 0.20 0.18 0.23 0.21 0.21 0.20 0.24 0.26 0.28 0.26 0.26 0.25 0.24 0.24 0.21 0.21 0.21 0.23 0.23 0.20 0.29 0.43 0.52 0.49 0.52 0.63 0.62 0.58 0.60 0.62 0.69 0.74 0.76
0.61 0.60 0.58 0.57 0.56 0.55 0.56 0.56 0.57 0.59 0.60 0.60 0.59 0.59 0.59 0.57 0.56 0.55 0.54 0.52 0.52 0.52 0.51 0.51 0.52 0.46 0.31 0.33 0.17 0.13 0.18 0.25 0.37 0.42 0.42 0.40 0.37 0.35 0.34 0.35 0.30 0.25 0.24 0.24 0.23 0.24 0.23 0.22 0.22 0.25 0.25 0.21 0.22 0.22 0.21 0.19 0.22 0.22 0.23 0.22 0.21 0.24 0.26 0.27 0.26 0.25 0.24 0.22 0.23 0.22 0.21 0.22 0.23 0.22 0.20 0.28 0.46 0.52 0.45 0.47 0.56 0.62 0.60 0.58 0.63 0.68 0.73 0.77
0.62 0.61 0.58 0.58 0.58 0.57 0.58 0.60 0.58 0.56 0.58 0.58 0.57 0.57 0.57 0.56 0.55 0.54 0.53 0.53 0.51 0.52 0.50 0.49 0.51 0.49 0.42 0.28 0.20 0.15 0.35 0.39 0.41 0.41 0.43 0.41 0.34 0.38 0.41 0.38 0.29 0.27 0.23 0.20 0.23 0.27 0.26 0.24 0.26 0.23 0.18 0.31 0.20 0.24 0.23 0.26 0.21 0.21 0.22 0.18 0.18 0.20 0.22 0.25 0.24 0.24 0.23 0.21 0.23 0.23 0.21 0.20 0.21 0.18 0.20 0.32 0.45 0.45 0.43 0.41 0.46 0.59 0.60 0.56 0.59 0.65 0.71 0.74
0.61 0.60 0.59 0.57 0.58 0.58 0.56 0.57 0.60 0.56 0.56 0.58 0.58 0.56 0.55 0.54 0.54 0.53 0.52 0.51 0.52 0.50 0.51 0.48 0.47 0.44 0.34 0.19 0.19 0.20 0.22 0.29 0.29 0.29 0.33 0.41 0.38 0.43 0.46 0.41 0.33 0.32 0.29 0.22 0.21 0.26 0.28 0.26 0.25 0.21 0.30 0.28 0.25 0.20 0.25 0.26 0.23 0.21 0.20 0.19 0.18 0.18 0.20 0.23 0.24 0.23 0.22 0.21 0.23 0.22 0.17 0.18 0.19 0.20 0.22 0.37 0.43 0.42 0.37 0.36 0.39 0.53 0.55 0.56 0.56 0.60 0.68 0.74
0.61 0.60 0.59 0.57 0.57 0.57 0.55 0.57 0.60 0.61 0.58 0.58 0.55 0.54 0.54 0.53 0.53 0.52 0.52 0.50 0.52 0.52 0.49 0.49 0.53 0.47 0.33 0.19 0.19 0.23 0.23 0.26 0.24 0.20 0.21 0.28 0.27 0.33 0.45 0.45 0.40 0.37 0.37 0.32 0.33 0.32 0.28 0.32 0.32 0.28 0.36 0.30 0.27 0.32 0.24 0.21 0.21 0.17 0.18 0.19 0.17 0.15 0.17 0.22 0.22 0.22 0.20 0.23 0.23 0.23 0.17 0.18 0.20 0.21 0.21 0.33 0.51 0.40 0.29 0.33 0.36 0.41 0.48 0.54 0.56 0.58 0.62 0.70
0.59 0.58 0.58 0.57 0.57 0.56 0.55 0.57 0.58 0.57 0.56 0.54 0.54 0.55 0.53 0.51 0.51 0.51 0.51 0.51 0.50 0.51 0.51 0.57 0.55 0.40 0.26 0.21 0.28 0.29 0.27 0.28 0.20 0.17 0.20 0.23 0.25 0.30 0.39 0.43 0.41 0.40 0.39 0.36 0.34 0.34 0.32 0.30 0.33 0.28 0.27 0.37 0.37 0.29 0.23 0.20 0.19 0.18 0.15 0.14 0.16 0.16 0.17 0.20 0.23 0.21 0.19 0.21 0.24 0.22 0.17 0.17 0.19 0.21 0.22 0.28 0.49 0.49 0.40 0.40 0.40 0.41 0.44 0.51 0.54 0.56 0.60 0.67
0.59 0.58 0.58 0.59 0.57 0.56 0.56 0.55 0.56 0.57 0.56 0.54 0.53 0.52 0.52 0.50 0.49 0.48 0.49 0.48 0.49 0.50 0.53 0.46 0.44 0.38 0.26 0.17 0.20 0.33 0.31 0.20 0.16 0.18 0.20 0.22 0.24 0.26 0.40 0.43 0.45 0.44 0.41 0.38 0.37 0.33 0.31 0.29 0.25 0.28 0.28 0.31 0.29 0.25 0.22 0.19 0.18 0.18 0.15 0.14 0.14 0.16 0.17 0.18 0.21 0.22 0.22 0.21 0.23 0.21 0.17 0.17 0.18 0.26 0.27 0.30 0.45 0.48 0.41 0.41 0.44 0.47 0.51 0.56 0.59 0.61 0.63 0.66
0.58 0.58 0.59 0.60 0.60 0.60 0.60 0.59 0.58 0.57 0.56 0.55 0.53 0.51 0.50 0.48 0.47 0.47 0.47 0.47 0.45 0.50 0.51 0.33 0.43 0.45 0.17 0.24 0.33 0.20 0.18 0.21 0.28 0.25 0.26 0.24 0.24 0.30 0.40 0.43 0.41 0.40 0.41 0.37 0.33 0.32 0.28 0.23 0.25 0.27 0.30 0.27 0.27 0.25 0.20 0.18 0.16 0.16 0.17 0.15 0.16 0.15 0.17 0.17 0.20 0.22 0.21 0.21 0.20 0.22 0.19 0.20 0.26 0.30 0.31 0.32 0.36 0.44 0.44 0.42 0.44 0.48 0.52 0.57 0.61 0.64 0.66 0.70
0.58 0.58 0.61 0.62 0.61 0.62 0.61 0.60 0.58 0.55 0.53 0.52 0.50 0.48 0.45 0.50 0.54 0.51 0.44 0.44 0.52 0.51 0.51 0.53 0.42 0.34 0.19 0.24 0.17 0.21 0.26 0.26 0.27 0.25 0.25 0.30 0.30 0.32 0.37 0.39 0.41 0.41 0.37 0.29 0.31 0.26 0.26 0.19 0.22 0.21 0.25 0.26 0.25 0.23 0.17 0.15 0.17 0.16 0.15 0.15 0.15 0.16 0.18 0.17 0.18 0.21 0.22 0.22 0.20 0.21 0.21 0.25 0.31 0.36 0.36 0.37 0.38 0.34 0.41 0.44 0.45 0.47 0.50 0.57 0.62 0.65 0.67 0.70
0.59 0.59 0.61 0.62 0.62 0.61 0.61 0.59 0.56 0.55 0.55 0.53 0.51 0.50 0.47 0.57 0.53 0.48 0.38 0.42 0.33 0.27 0.20 0.24 0.24 0.12 0.11 0.21 0.24 0.23 0.26 0.28 0.30 0.28 0.23 0.28 0.33 0.35 0.39 0.44 0.43 0.36 0.27 0.23 0.24 0.25 0.23 0.20 0.21 0.21 0.19 0.21 0.21 0.22 0.20 0.20 0.19 0.18 0.17 0.16 0.17 0.15 0.16 0.17 0.20 0.23 0.24 0.22 0.20 0.21 0.20 0.26 0.30 0.33 0.38 0.42 0.45 0.39 0.38 0.41 0.45 0.49 0.53 0.57 0.62 0.65 0.65 0.71
0.60 0.60 0.62 0.62 0.61 0.60 0.59 0.59 0.57 0.54 0.54 0.50 0.47 0.44 0.43 0.30 0.37 0.30 0.39 0.40 0.25 0.20 0.20 0.22 0.24 0.21 0.19 0.24 0.28 0.31 0.31 0.32 0.26 0.29 0.28 0.32 0.35 0.34 0.35 0.38 0.36 0.32 0.26 0.20 0.24 0.23 0.23 0.16 0.15 0.16 0.20 0.21 0.23 0.24 0.25 0.23 0.22 0.20 0.19 0.18 0.17 0.17 0.18 0.20 0.21 0.23 0.25 0.23 0.23 0.28 0.29 0.29 0.31 0.35 0.40 0.44 0.47 0.43 0.43 0.43 0.43 0.46 0.50 0.56 0.61 0.67 0.73 0.78
0.60 0.60 0.62 0.62 0.60 0.60 0.60 0.58 0.55 0.53 0.55 0.52 0.45 0.34 0.18 0.19 0.19 0.17 0.29 0.29 0.28 0.26 0.23 0.23 0.24 0.20 0.17 0.25 0.29 0.29 0.22 0.24 0.28 0.29 0.28 0.35 0.37 0.36 0.32 0.33 0.28 0.23 0.23 0.23 0.22 0.28 0.23 0.16 0.15 0.19 0.22 0.23 0.24 0.25 0.26 0.24 0.22 0.20 0.19 0.18 0.17 0.17 0.17 0.19 0.20 0.23 0.26 0.23 0.27 0.33 0.29 0.30 0.34 0.40 0.44 0.47 0.43 0.40 0.45 0.47 0.48 0.47 0.51 0.54 0.56 0.59 0.68 0.78
0.60 0.61 0.63 0.63 0.60 0.58 0.57 0.55 0.56 0.55 0.54 0.49 0.42 0.30 0.29 0.31 0.39 0.45 0.36 0.22 0.29 0.31 0.28 0.25 0.27 0.23 0.23 0.23 0.27 0.31 0.27 0.21 0.22 0.28 0.31 0.33 0.35 0.33 0.34 0.31 0.25 0.20 0.25 0.24 0.23 0.21 0.18 0.16 0.19 0.22 0.25 0.25 0.25 0.25 0.25 0.23 0.21 0.20 0.18 0.18 0.17 0.16 0.19 0.21 0.22 0.25 0.25 0.25 0.27 0.33 0.29 0.33 0.37 0.42 0.47 0.45 0.45 0.50 0.55 0.55 0.54 0.54 0.54 0.57 0.60 0.64 0.71 0.78
0.61 0.61 0.64 0.64 0.60 0.58 0.58 0.57 0.54 0.54 0.50 0.41 0.31 0.30 0.29 0.40 0.45 0.48 0.45 0.33 0.26 0.32 0.31 0.28 0.25 0.22 0.20 0.23 0.24 0.26 0.20 0.17 0.18 0.25 0.28 0.29 0.31 0.33 0.36 0.30 0.25 0.24 0.24 0.22 0.18 0.19 0.16 0.18 0.23 0.27 0.27 0.24 0.23 0.24 0.24 0.24 0.23 0.20 0.18 0.17 0.16 0.18 0.17 0.16 0.22 0.25 0.25 0.24 0.27 0.33 0.28 0.36 0.42 0.47 0.47 0.50 0.49 0.53 0.59 0.61 0.60 0.61 0.58 0.59 0.61 0.66 0.72 0.76
0.62 0.62 0.65 0.64 0.61 0.58 0.60 0.59 0.55 0.46 0.41 0.37 0.33 0.30 0.41 0.48 0.50 0.50 0.37 0.23 0.21 0.24 0.27 0.27 0.26 0.23 0.21 0.18 0.23 0.21 0.18 0.19 0.19 0.21 0.32 0.28 0.26 0.34 0.35 0.31 0.25 0.24 0.21 0.21 0.20 0.19 0.19 0.22 0.29 0.28 0.27 0.23 0.21 0.22 0.23 0.22 0.20 0.21 0.20 0.19 0.18 0.17 0.17 0.19 0.21 0.23 0.28 0.32 0.37 0.32 0.28 0.31 0.37 0.36 0.39 0.49 0.56 0.55 0.57 0.59 0.61 0.64 0.65 0.67 0.71 0.72 0.77 0.78
0.63 0.63 0.65 0.64 0.61 0.59 0.59 0.58 0.42 0.38 0.43 0.39 0.34 0.41 0.50 0.53 0.53 0.52 0.36 0.29 0.27 0.23 0.34 0.31 0.33 0.28 0.25 0.33 0.32 0.21 0.20 0.21 0.21 0.26 0.30 0.28 0.27 0.32 0.31 0.35 0.28 0.22 0.23 0.23 0.21 0.21 0.22 0.27 0.30 0.28 0.26 0.24 0.21 0.20 0.22 0.22 0.20 0.20 0.21 0.21 0.19 0.19 0.18 0.19 0.22 0.22 0.23 0.26 0.30 0.25 0.18 0.23 0.35 0.38 0.39 0.47 0.51 0.50 0.57 0.53 0.55 0.59 0.63 0.66 0.66 0.71 0.79 0.82
0.63 0.63 0.64 0.63 0.61 0.59 0.59 0.42 0.41 0.44 0.37 0.30 0.39 0.51 0.54 0.57 0.55 0.56 0.38 0.22 0.15 0.22 0.30 0.19 0.32 0.22 0.34 0.25 0.25 0.22 0.26 0.19 0.23 0.25 0.31 0.30 0.33 0.29 0.30 0.28 0.28 0.21 0.24 0.24 0.22 0.24 0.25 0.29 0.28 0.25 0.23 0.21 0.20 0.20 0.22 0.23 0.20 0.19 0.19 0.23 0.22 0.20 0.20 0.20 0.20 0.20 0.18 0.17 0.25 0.25 0.19 0.20 0.34 0.35 0.41 0.45 0.46 0.47 0.54 0.54 0.56 0.57 0.59 0.62 0.65 0.70 0.75 0.78
0.63 0.63 0.64 0.63 0.61 0.60 0.45 0.33 0.50 0.45 0.30 0.30 0.46 0.56 0.56 0.52 0.63 0.56 0.28 0.19 0.14 0.21 0.18 0.27 0.25 0.27 0.29 0.24 0.21 0.24 0.12 0.14 0.26 0.31 0.29 0.33 0.29 0.35 0.26 0.25 0.26 0.29 0.29 0.29 0.23 0.21 0.28 0.28 0.27 0.27 0.23 0.20 0.19 0.19 0.23 0.23 0.20 0.18 0.22 0.23 0.23 0.20 0.20 0.20 0.20 0.20 0.21 0.23 0.25 0.24 0.25 0.21 0.24 0.33 0.45 0.49 0.44 0.45 0.49 0.53 0.55 0.57 0.59 0.60 0.63 0.66 0.68 0.73
0.62 0.64 0.63 0.61 0.61 0.58 0.47 0.50 0.43 0.36 0.33 0.46 0.56 0.58 0.58 0.53 0.64 0.56 0.25 0.12 0.10 0.26 0.19 0.25 0.25 0.40 0.30 0.28 0.25 0.15 0.17 0.28 0.18 0.25 0.30 0.32 0.35 0.31 0.28 0.24 0.23 0.24 0.28 0.26 0.15 0.26 0.27 0.25 0.25 0.23 0.23 0.21 0.19 0.20 0.25 0.25 0.21 0.20 0.22 0.23 0.22 0.21 0.21 0.20 0.20 0.21 0.23 0.20 0.18 0.21 0.28 0.22 0.25 0.35 0.48 0.48 0.39 0.42 0.46 0.50 0.53 0.57 0.60 0.61 0.63 0.65 0.68 0.71
0.63 0.65 0.62 0.61 0.60 0.60 0.59 0.50 0.42 0.33 0.42 0.51 0.56 0.56 0.55 0.60 0.57 0.34 0.21 0.11 0.27 0.21 0.38 0.22 0.38 0.32 0.31 0.30 0.22 0.17 0.19 0.29 0.18 0.23 0.30 0.33 0.36 0.34 0.23 0.27 0.25 0.24 0.29 0.26 0.20 0.23 0.27 0.26 0.24 0.24 0.21 0.19 0.22 0.24 0.26 0.25 0.21 0.22 0.23 0.24 0.23 0.23 0.22 0.20 0.20 0.22 0.23 0.19 0.17 0.19 0.24 0.19 0.24 0.36 0.38 0.44 0.41 0.39 0.44 0.50 0.53 0.56 0.59 0.62 0.64 0.68 0.71 0.74
0.64 0.64 0.62 0.61 0.59 0.55 0.53 0.52 0.41 0.44 0.45 0.54 0.56 0.56 0.57 0.57 0.43 0.20 0.16 0.09 0.36 0.20 0.24 0.28 0.24 0.21 0.28 0.21 0.19 0.19 0.19 0.28 0.27 0.27 0.29 0.27 0.31 0.35 0.30 0.33 0.28 0.25 0.25 0.28 0.25 0.26 0.27 0.30 0.32 0.27 0.23 0.22 0.22 0.23 0.25 0.24 0.24 0.25 0.22 0.20 0.20 0.20 0.20 0.21 0.22 0.24 0.21 0.16 0.17 0.20 0.23 0.22 0.18 0.32 0.37 0.36 0.39 0.46 0.49 0.51 0.55 0.58 0.60 0.62 0.64 0.67 0.69 0.71
0.65 0.63 0.61 0.62 0.50 0.51 0.52 0.38 0.43 0.49 0.50 0.60 0.59 0.57 0.56 0.47 0.26 0.18 0.11 0.12 0.32 0.29 0.27 0.26 0.22 0.29 0.24 0.18 0.15 0.19 0.22 0.29 0.28 0.27 0.24 0.29 0.28 0.30 0.30 0.26 0.33 0.27 0.26 0.26 0.23 0.26 0.26 0.27 0.26 0.28 0.31 0.28 0.26 0.22 0.25 0.26 0.24 0.22 0.20 0.18 0.18 0.18 0.20 0.19 0.21 0.24 0.18 0.15 0.19 0.24 0.21 0.23 0.17 0.30 0.45 0.50 0.57 0.57 0.53 0.49 0.52 0.54 0.58 0.61 0.64 0.66 0.68 0.69
0.63 0.61 0.61 0.60 0.56 0.56 0.44 0.39 0.49 0.53 0.54 0.61 0.56 0.49 0.45 0.24 0.27 0.14 0.11 0.35 0.22 0.29 0.26 0.21 0.25 0.25 0.23 0.20 0.15 0.16 0.19 0.27 0.30 0.26 0.21 0.23 0.24 0.23 0.25 0.21 0.23 0.20 0.19 0.20 0.20 0.25 0.23 0.23 0.26 0.26 0.30 0.27 0.24 0.22 0.22 0.24 0.23 0.20 0.18 0.17 0.14 0.14 0.15 0.14 0.19 0.16 0.16 0.15 0.21 0.24 0.24 0.21 0.25 0.38 0.49 0.54 0.57 0.57 0.58 0.57 0.56 0.58 0.59 0.62 0.65 0.66 0.67 0.68
0.62 0.59 0.59 0.60 0.58 0.50 0.51 0.58 0.59 0.53 0.53 0.58 0.48 0.49 0.32 0.20 0.11 0.15 0.16 0.25 0.25 0.39 0.30 0.35 0.24 0.26 0.24 0.19 0.16 0.17 0.23 0.22 0.28 0.27 0.24 0.22 0.22 0.22 0.26 0.25 0.26 0.24 0.16 0.20 0.20 0.19 0.21 0.25 0.24 0.24 0.25 0.29 0.28 0.20 0.19 0.18 0.20 0.18 0.15 0.15 0.13 0.13 0.12 0.12 0.15 0.18 0.16 0.19 0.24 0.24 0.29 0.26 0.42 0.45 0.57 0.53 0.58 0.62 0.62 0.62 0.64 0.62 0.60 0.62 0.63 0.65 0.66 0.67
0.61 0.60 0.54 0.57 0.56 0.53 0.52 0.57 0.57 0.51 0.48 0.51 0.48 0.40 0.30 0.15 0.13 0.24 0.18 0.25 0.28 0.41 0.37 0.32 0.28 0.26 0.26 0.17 0.17 0.20 0.21 0.27 0.27 0.25 0.24 0.21 0.21 0.19 0.21 0.25 0.28 0.25 0.24 0.21 0.18 0.17 0.14 0.15 0.21 0.23 0.20 0.28 0.27 0.25 0.22 0.17 0.18 0.18 0.18 0.16 0.15 0.15 0.14 0.12 0.14 0.13 0.14 0.16 0.22 0.29 0.21 0.25 0.27 0.39 0.57 0.59 0.64 0.66 0.67 0.67 0.67 0.65 0.65 0.65 0.66 0.66 0.66 0.67
0.60 0.57 0.56 0.56 0.55 0.53 0.52 0.51 0.55 0.51 0.49 0.46 0.41 0.33 0.19 0.15 0.21 0.20 0.22 0.28 0.36 0.38 0.33 0.37 0.27 0.23 0.23 0.22 0.22 0.22 0.24 0.23 0.29 0.26 0.23 0.21 0.18 0.19 0.18 0.21 0.26 0.28 0.25 0.20 0.21 0.21 0.16 0.15 0.20 0.25 0.26 0.28 0.26 0.27 0.28 0.24 0.19 0.18 0.19 0.20 0.17 0.17 0.20 0.16 0.18 0.17 0.16 0.17 0.18 0.23 0.24 0.38 0.35 0.65 0.65 0.65 0.64 0.64 0.66 0.65 0.65 0.62 0.64 0.65 0.63 0.62 0.64 0.66
0.56 0.52 0.57 0.52 0.49 0.49 0.53 0.51 0.52 0.51 0.46 0.41 0.33 0.26 0.21 0.21 0.17 0.29 0.30 0.41 0.40 0.34 0.35 0.33 0.28 0.20 0.22 0.21 0.23 0.21 0.27 0.25 0.26 0.28 0.25 0.24 0.22 0.20 0.22 0.21 0.22 0.26 0.23 0.20 0.22 0.17 0.18 0.15 0.22 0.25 0.28 0.28 0.28 0.28 0.25 0.26 0.15 0.18 0.18 0.16 0.19 0.25 0.22 0.19 0.20 0.22 0.21 0.18 0.18 0.31 0.31 0.42 0.54 0.60 0.65 0.60 0.59 0.59 0.62 0.62 0.62 0.61 0.63 0.63 0.61 0.62 0.64 0.66
0.50 0.54 0.46 0.49 0.47 0.52 0.56 0.52 0.47 0.47 0.45 0.38 0.29 0.24 0.28 0.26 0.28 0.32 0.40 0.38 0.41 0.42 0.34 0.23 0.21 0.20 0.20 0.20 0.20 0.20 0.23 0.26 0.27 0.25 0.23 0.26 0.23 0.24 0.22 0.23 0.25 0.25 0.26 0.23 0.21 0.24 0.15 0.17 0.24 0.24 0.24 0.28 0.32 0.30 0.28 0.25 0.24 0.19 0.15 0.19 0.25 0.28 0.26 0.19 0.15 0.17 0.16 0.14 0.21 0.28 0.26 0.32 0.32 0.28 0.57 0.55 0.52 0.55 0.57 0.58 0.60 0.62 0.63 0.61 0.61 0.63 0.64 0.65
0.51 0.50 0.50 0.49 0.55 0.59 0.57 0.50 0.42 0.44 0.43 0.35 0.27 0.29 0.34 0.26 0.35 0.32 0.40 0.45 0.47 0.45 0.34 0.28 0.25 0.26 0.20 0.20 0.20 0.20 0.23 0.21 0.26 0.25 0.24 0.24 0.23 0.28 0.25 0.23 0.26 0.25 0.25 0.27 0.22 0.21 0.21 0.17 0.22 0.26 0.27 0.28 0.32 0.30 0.27 0.27 0.26 0.20 0.17 0.25 0.19 0.17 0.16 0.19 0.18 0.13 0.13 0.13 0.19 0.25 0.30 0.32 0.33 0.35 0.46 0.45 0.47 0.51 0.55 0.58 0.59 0.59 0.60 0.60 0.61 0.63 0.65 0.67
0.54 0.50 0.38 0.54 0.64 0.59 0.51 0.46 0.38 0.40 0.38 0.28 0.28 0.26 0.31 0.29 0.34 0.37 0.39 0.47 0.49 0.43 0.34 0.33 0.28 0.27 0.25 0.21 0.22 0.23 0.23 0.19 0.26 0.24 0.24 0.27 0.23 0.28 0.25 0.26 0.23 0.25 0.25 0.27 0.23 0.24 0.23 0.19 0.21 0.29 0.27 0.29 0.30 0.28 0.20 0.22 0.25 0.26 0.25 0.22 0.25 0.22 0.18 0.16 0.17 0.18 0.16 0.14 0.17 0.21 0.27 0.23 0.37 0.42 0.46 0.47 0.51 0.54 0.55 0.55 0.56 0.58 0.59 0.60 0.60 0.61 0.62 0.64
0.49 0.40 0.36 0.56 0.59 0.54 0.49 0.38 0.35 0.39 0.33 0.26 0.29 0.29 0.36 0.30 0.33 0.37 0.40 0.46 0.42 0.40 0.36 0.33 0.33 0.27 0.27 0.25 0.25 0.22 0.24 0.23 0.24 0.25 0.26 0.30 0.28 0.33 0.28 0.29 0.25 0.24 0.26 0.27 0.26 0.28 0.22 0.27 0.19 0.27 0.33 0.30 0.23 0.27 0.23 0.21 0.19 0.21 0.21 0.20 0.21 0.21 0.24 0.21 0.20 0.17 0.15 0.15 0.15 0.17 0.18 0.24 0.37 0.51 0.50 0.52 0.55 0.56 0.55 0.53 0.56 0.57 0.60 0.60 0.60 0.60 0.62 0.64
0.47 0.38 0.39 0.57 0.52 0.50 0.41 0.35 0.33 0.32 0.31 0.35 0.36 0.33 0.34 0.31 0.33 0.32 0.43 0.50 0.47 0.50 0.42 0.38 0.34 0.29 0.29 0.27 0.24 0.27 0.24 0.25 0.26 0.25 0.27 0.30 0.30 0.25 0.31 0.28 0.28 0.26 0.28 0.27 0.27 0.27 0.23 0.24 0.23 0.26 0.26 0.26 0.29 0.34 0.32 0.27 0.24 0.21 0.20 0.20 0.21 0.18 0.18 0.15 0.14 0.22 0.20 0.17 0.15 0.15 0.14 0.24 0.41 0.55 0.53 0.53 0.57 0.56 0.57 0.56 0.56 0.57 0.58 0.58 0.59 0.60 0.61 0.62
0.40 0.31 0.34 0.56 0.52 0.44 0.34 0.25 0.31 0.39 0.35 0.30 0.30 0.33 0.32 0.37 0.29 0.33 0.44 0.50 0.50 0.45 0.50 0.42 0.37 0.33 0.29 0.28 0.28 0.27 0.27 0.26 0.27 0.26 0.27 0.26 0.31 0.31 0.32 0.38 0.32 0.30 0.26 0.24 0.26 0.29 0.30 0.33 0.29 0.25 0.28 0.30 0.34 0.38 0.39 0.36 0.31 0.29 0.26 0.24 0.26 0.25 0.22 0.18 0.14 0.17 0.20 0.21 0.24 0.22 0.18 0.23 0.46 0.54 0.55 0.55 0.57 0.58 0.59 0.57 0.56 0.56 0.57 0.57 0.58 0.61 0.63 0.63
0.42 0.36 0.56 0.56 0.48 0.45 0.36 0.27 0.34 0.34 0.32 0.32 0.38 0.34 0.35 0.31 0.32 0.42 0.43 0.46 0.44 0.45 0.40 0.38 0.34 0.31 0.31 0.30 0.30 0.28 0.29 0.29 0.30 0.27 0.29 0.28 0.32 0.36 0.40 0.39 0.37 0.31 0.30 0.29 0.30 0.32 0.38 0.32 0.28 0.31 0.34 0.38 0.40 0.41 0.41 0.40 0.35 0.29 0.31 0.33 0.28 0.24 0.24 0.21 0.19 0.21 0.19 0.22 0.19 0.20 0.16 0.25 0.46 0.56 0.56 0.58 0.59 0.59 0.59 0.58 0.56 0.55 0.56 0.57 0.58 0.60 0.61 0.61
0.45 0.40 0.42 0.51 0.53 0.53 0.34 0.24 0.25 0.27 0.29 0.31 0.30 0.29 0.32 0.32 0.37 0.40 0.41 0.44 0.43 0.39 0.36 0.36 0.36 0.35 0.32 0.34 0.34 0.28 0.30 0.26 0.35 0.32 0.29 0.34 0.31 0.45 0.44 0.40 0.36 0.30 0.28 0.30 0.26 0.35 0.26 0.33 0.31 0.26 0.25 0.28 0.31 0.34 0.34 0.38 0.37 0.32 0.30 0.32 0.32 0.31 0.28 0.26 0.25 0.26 0.19 0.23 0.22 0.17 0.14 0.22 0.40 0.52 0.54 0.55 0.55 0.55 0.55 0.57 0.58 0.55 0.56 0.57 0.59 0.60 0.62 0.62
0.46 0.45 0.43 0.43 0.55 0.52 0.33 0.35 0.27 0.28 0.29 0.27 0.28 0.25 0.28 0.36 0.42 0.43 0.44 0.42 0.45 0.42 0.40 0.38 0.40 0.39 0.36 0.39 0.33 0.33 0.32 0.31 0.31 0.38 0.36 0.35 0.36 0.46 0.45 0.41 0.39 0.35 0.38 0.39 0.34 0.37 0.28 0.32 0.30 0.22 0.18 0.17 0.18 0.19 0.21 0.25 0.29 0.34 0.35 0.33 0.33 0.29 0.27 0.24 0.19 0.21 0.17 0.24 0.25 0.20 0.20 0.31 0.42 0.48 0.49 0.51 0.52 0.53 0.55 0.56 0.59 0.58 0.58 0.59 0.59 0.60 0.62 0.63
0.35 0.23 0.33 0.41 0.50 0.48 0.46 0.50 0.41 0.33 0.28 0.27 0.25 0.29 0.36 0.36 0.43 0.48 0.48 0.43 0.46 0.43 0.44 0.45 0.48 0.45 0.40 0.37 0.32 0.31 0.30 0.34 0.29 0.32 0.37 0.34 0.40 0.45 0.45 0.45 0.43 0.40 0.41 0.39 0.39 0.36 0.34 0.37 0.34 0.31 0.24 0.21 0.24 0.28 0.36 0.36 0.33 0.28 0.31 0.32 0.32 0.33 0.32 0.28 0.25 0.21 0.18 0.23 0.23 0.26 0.26 0.30 0.34 0.41 0.44 0.48 0.50 0.51 0.51 0.54 0.54 0.56 0.58 0.59 0.60 0.60 0.62 0.62
0.40 0.27 0.29 0.30 0.41 0.41 0.40 0.44 0.38 0.37 0.28 0.32 0.28 0.37 0.35 0.39 0.42 0.43 0.48 0.39 0.44 0.46 0.46 0.47 0.44 0.39 0.38 0.35 0.32 0.32 0.34 0.32 0.36 0.35 0.36 0.35 0.41 0.45 0.48 0.47 0.46 0.45 0.41 0.37 0.42 0.36 0.35 0.31 0.35 0.35 0.35 0.35 0.37 0.36 0.39 0.38 0.31 0.33 0.32 0.31 0.34 0.32 0.31 0.28 0.23 0.21 0.27 0.24 0.21 0.31 0.33 0.28 0.33 0.41 0.45 0.47 0.50 0.52 0.54 0.54 0.55 0.58 0.58 0.58 0.59 0.60 0.61 0.61
0.31 0.32 0.38 0.42 0.29 0.27 0.31 0.33 0.39 0.36 0.38 0.35 0.36 0.46 0.40 0.39 0.40 0.37 0.42 0.42 0.45 0.48 0.45 0.48 0.45 0.43 0.39 0.35 0.35 0.32 0.35 0.35 0.38 0.34 0.38 0.40 0.42 0.45 0.42 0.47 0.42 0.44 0.42 0.38 0.43 0.35 0.32 0.29 0.37 0.36 0.36 0.41 0.42 0.41 0.41 0.38 0.37 0.37 0.36 0.35 0.32 0.34 0.32 0.27 0.27 0.29 0.29 0.22 0.21 0.32 0.35 0.32 0.37 0.42 0.47 0.51 0.53 0.55 0.56 0.56 0.58 0.59 0.59 0.59 0.58 0.58 0.59 0.59
0.44 0.37 0.42 0.48 0.39 0.38 0.37 0.37 0.42 0.41 0.38 0.41 0.40 0.43 0.38 0.38 0.36 0.40 0.37 0.38 0.42 0.44 0.49 0.38 0.41 0.41 0.40 0.40 0.35 0.34 0.34 0.32 0.34 0.39 0.37 0.40 0.41 0.40 0.38 0.42 0.45 0.46 0.42 0.38 0.39 0.42 0.35 0.33 0.38 0.38 0.36 0.39 0.41 0.42 0.43 0.39 0.38 0.38 0.38 0.38 0.39 0.37 0.35 0.34 0.34 0.35 0.33 0.30 0.33 0.35 0.36 0.36 0.41 0.45 0.49 0.52 0.58 0.59 0.59 0.60 0.61 0.59 0.57 0.56 0.56 0.58 0.57 0.57
0.41 0.37 0.38 0.52 0.51 0.40 0.44 0.43 0.43 0.37 0.34 0.43 0.37 0.38 0.40 0.39 0.35 0.36 0.37 0.37 0.35 0.40 0.52 0.41 0.43 0.42 0.40 0.39 0.36 0.35 0.39 0.39 0.37 0.34 0.41 0.39 0.40 0.42 0.39 0.40 0.38 0.44 0.43 0.38 0.37 0.40 0.33 0.34 0.40 0.38 0.34 0.36 0.41 0.43 0.43 0.41 0.39 0.36 0.40 0.41 0.41 0.41 0.40 0.39 0.38 0.39 0.39 0.37 0.39 0.37 0.35 0.35 0.46 0.52 0.53 0.57 0.59 0.61 0.60 0.58 0.58 0.58 0.57 0.56 0.56 0.55 0.55 0.56
0.57 0.61 0.58 0.48 0.38 0.41 0.44 0.46 0.39 0.39 0.38 0.41 0.37 0.38 0.41 0.38 0.35 0.38 0.36 0.40 0.37 0.38 0.43 0.41 0.43 0.42 0.43 0.41 0.39 0.41 0.45 0.45 0.44 0.43 0.44 0.42 0.36 0.43 0.39 0.41 0.46 0.39 0.41 0.39 0.37 0.37 0.35 0.37 0.41 0.37 0.29 0.32 0.39 0.40 0.40 0.41 0.40 0.37 0.37 0.39 0.39 0.38 0.35 0.38 0.36 0.41 0.36 0.34 0.37 0.37 0.34 0.34 0.46 0.53 0.55 0.56 0.57 0.57 0.56 0.57 0.57 0.56 0.57 0.56 0.57 0.57 0.57 0.57
0.67 0.70 0.68 0.56 0.38 0.44 0.42 0.45 0.43 0.37 0.35 0.41 0.41 0.39 0.38 0.36 0.39 0.39 0.33 0.39 0.41 0.43 0.43 0.43 0.44 0.44 0.44 0.44 0.41 0.43 0.47 0.49 0.49 0.50 0.52 0.51 0.51 0.49 0.50 0.49 0.48 0.43 0.39 0.40 0.42 0.35 0.32 0.34 0.32 0.31 0.26 0.29 0.38 0.40 0.38 0.38 0.35 0.30 0.32 0.37 0.39 0.39 0.40 0.41 0.43 0.46 0.44 0.44 0.36 0.33 0.35 0.44 0.48 0.53 0.51 0.53 0.55 0.56 0.57 0.57 0.56 0.57 0.58 0.58 0.57 0.57 0.58 0.59
Wind_Speed
27 27 27 27 27 27 27 27 27 27 27 27 27 26 26 26 26 26 25 25 25 25 24 24 24 23 23 23 23 22 22 22 21 21 20 21 22 22 22 21 21 22 21 19 19 18 17 17 17 17 17 16 17 18 18 17 17 17 16 16 15 15 14 14 13 12 10 9 9 9 8 9 9 9 9 8 7 7 9 10 10 10 9 9 8 7 8 8
27 27 28 28 28 28 28 27 27 27 27 27 27 27 27 27 27 26 26 26 25 25 25 25 24 24 24 23 23 22 22 22 22 22 22 22 23 23 22 22 22 23 22 21 21 20 19 19 18 17 16 16 17 17 18 18 17 17 16 16 16 15 14 14 13 12 11 10 9 9 9 10 10 10 10 9 9 9 9 9 10 10 9 9 8 8 8 8
27 28 28 28 28 28 28 28 28 28 28 28 27 27 27 27 27 27 27 26 26 26 26 25 25 25 24 24 23 23 22 22 21 21 22 22 23 23 23 22 22 23 23 22 22 21 20 19 19 18 16 16 17 18 18 18 18 17 16 17 16 15 15 15 14 14 13 11 10 10 9 9 9 9 10 9 9 9 9 9 9 10 10 10 9 9 9 9
27 28 28 28 28 28 28 28 28 28 28 28 28 28 27 27 27 27 27 27 26 26 26 26 26 25 25 24 24 22 22 21 21 20 20 20 21 21 22 23 22 22 23 22 22 21 20 19 19 18 17 16 17 18 19 19 18 17 17 17 16 15 16 16 15 14 13 12 11 10 10 9 8 9 10 9 8 8 9 9 9 10 10 10 10 10 10 10
28 28 28 28 28 28 28 28 28 28 28 28 28 28 28 28 28 28 28 27 27 27 26 26 26 26 25 25 24 23 21 20 19 19 19 19 19 19 21 22 22 22 21 22 22 21 20 19 19 18 17 16 17 18 19 19 18 17 17 17 17 16 17 16 15 14 13 12 12 11 11 10 9 9 10 10 8 7 8 10 10 10 10 11 11 11 11 11
27 27 27 28 28 28 29 29 28 28 28 28 28 28 28 28 28 28 28 28 27 27 27 27 26 26 26 25 24 23 22 21 18 18 19 19 18 18 19 21 22 22 21 21 21 21 20 20 20 19 18 17 18 18 18 19 19 18 17 17 18 19 18 16 15 15 14 13 13 12 11 11 10 9 9 10 9 8 8 10 10 10 10 11 11 11 12 12
27 27 27 27 28 28 29 29 29 29 28 28 28 28 28 28 28 28 28 28 28 28 27 27 27 26 26 25 25 24 24 23 21 19 19 19 20 19 19 20 22 23 22 20 20 21 21 21 21 20 18 17 18 19 18 19 19 19 18 17 18 19 19 17 17 16 15 15 14 13 12 11 11 10 10 10 9 9 10 10 10 9 10 11 11 12 12 11
27 27 27 27 27 28 28 28 28 28 28 28 28 28 28 28 28 28 28 28 28 28 28 27 27 26 26 25 25 25 25 25 24 23 21 20 20 20 19 19 22 23 23 21 21 21 21 22 22 20 19 18 18 19 19 19 19 19 19 18 18 19 19 18 18 17 16 16 15 14 13 12 12 11 10 11 10 10 11 10 9 9 10 11 11 12 11 11
27 27 28 28 28 28 28 28 28 28 28 28 28 28 28 28 28 28 28 28 28 28 28 27 27 27 26 26 25 25 25 25 25 25 23 22 21 20 20 20 22 24 23 22 21 21 21 22 22 21 20 18 18 19 19 20 19 20 20 19 19 20 19 18 18 17 16 15 14 14 13 11 12 12 11 12 12 11 11 10 10 10 11 11 11 11 11 11
28 28 29 29 29 29 29 29 28 28 28 28 28 28 28 27 28 28 27 27 27 28 27 27 27 27 27 27 26 26 25 25 24 23 22 22 21 21 21 21 23 24 23 22 21 21 21 22 22 21 19 18 18 19 20 21 18 19 21 21 21 21 19 19 19 17 16 15 15 15 13 11 12 12 12 12 12 11 11 10 11 12 13 12 11 11 11 11
30 30 30 30 30 30 29 29 29 29 29 29 28 28 28 28 28 27 27 27 27 27 27 27 27 27 27 27 28 26 24 24 24 23 22 21 22 22 21 21 23 25 24 23 22 22 20 21 22 20 19 19 19 18 20 21 19 19 20 20 21 21 20 20 19 18 16 15 15 15 14 12 12 12 12 11 11 11 11 11 12 13 13 12 12 11 11 11
31 31 31 31 31 30 30 30 30 30 30 29 29 29 29 29 28 28 27 27 27 27 27 27 27 27 27 28 29 28 25 25 24 23 22 21 21 22 21 22 23 25 24 23 22 22 21 21 22 21 19 20 19 18 19 20 19 19 19 19 19 19 20 20 18 16 16 15 14 15 14 12 12 12 12 12 12 11 11 11 12 13 13 13 12 11 11 10
32 32 32 32 31 31 31 31 31 31 30 30 30 30 30 29 29 28 28 28 28 27 27 27 27 27 27 28 28 28 28 28 27 26 25 23 22 21 21 22 23 24 24 23 22 23 22 21 22 21 20 20 19 18 18 18 19 19 19 19 18 18 19 19 17 16 16 15 14 15 14 12 13 13 12 12 13 12 12 12 12 13 13 13 12 11 11 10
32 32 33 32 32 32 32 31 31 31 31 31 31 30 30 30 30 29 29 29 28 28 28 27 27 26 27 27 27 28 29 29 29 29 27 26 24 22 22 22 24 24 23 22 22 23 23 21 22 21 21 21 19 18 17 17 19 19 19 19 18 18 18 17 17 16 16 15 14 15 14 12 12 12 11 12 13 12 12 12 12 12 12 13 13 12 11 10
32 33 33 32 32 32 31 31 31 31 31 31 31 31 31 31 30 30 30 30 29 28 28 27 27 26 27 27 26 27 28 28 29 29 28 27 25 24 23 23 24 24 24 23 22 23 23 22 22 21 21 21 20 19 18 17 18 18 19 19 18 18 17 16 17 17 16 14 14 14 13 12 11 10 10 10 12 12 11 11 11 12 12 13 13 12 11 10
33 32 32 32 32 31 31 31 31 31 31 31 31 31 31 31 31 31 31 30 29 28 28 27 27 26 26 25 25 25 26 27 28 28 28 28 27 25 24 24 24 24 24 23 22 22 24 23 22 21 21 21 21 20 19 18 18 18 19 19 19 19 18 16 17 17 16 15 14 13 13 12 11 10 8 9 11 12 11 11 11 12 12 12 12 11 11 10
32 32 31 31 31 31 31 31 31 31 31 31 30 31 31 31 31 31 30 30 29 28 27 27 26 26 26 25 24 25 25 26 26 26 27 28 28 26 25 24 24 24 23 23 23 23 24 24 22 21 21 21 21 21 21 20 19 19 19 18 18 19 18 17 16 16 15 16 15 14 13 12 11 10 8 7 9 12 12 11 11 12 12 12 12 11 11 10
31 31 31 30 30 30 30 30 30 30 30 30 30 30 30 30 29 29 29 28 27 26 27 27 26 25 26 25 24 24 24 25 25 26 26 28 28 27 26 24 24 24 23 23 23 23 24 24 23 22 22 22 22 23 23 21 20 19 19 18 17 18 18 17 16 15 15 16 16 14 13 12 11 9 8 7 7 9 10 11 11 12 13 13 12 11 11 11
29 29 30 29 29 29 29 29 29 29 29 29 29 29 29 27 26 26 27 28 27 27 27 27 27 25 23 23 24 24 24 25 25 25 27 27 28 28 26 25 24 24 24 23 24 24 24 23 24 24 24 23 23 24 23 20 20 18 18 18 18 18 18 17 16 15 14 14 14 15 14 13 12 11 9 8 7 6 7 8 9 10 12 12 12 12 12 11
28 28 28 28 28 28 28 28 28 28 28 27 27 27 27 27 27 27 28 29 30 29 27 27 29 27 24 23 22 22 23 25 25 25 27 28 29 28 26 25 25 24 24 24 24 24 25 25 26 26 24 23 23 23 21 20 19 18 17 18 18 17 17 17 16 14 14 14 14 15 14 12 12 11 10 9 7 6 5 5 6 8 9 10 10 11 11 11
26 26 26 26 26 26 27 26 26 27 26 26 26 26 27 27 27 27 27 30 32 32 31 30 30 29 28 26 23 21 22 24 25 25 27 28 29 28 27 26 25 25 24 23 23 23 25 26 26 24 23 23 22 22 21 19 19 18 18 18 18 18 17 16 15 14 15 15 15 15 13 12 12 11 10 9 7 6 6 5 5 6 7 8 8 8 9 10
25 24 24 24 24 25 25 25 25 25 25 26 26 27 27 27 26 25 26 28 30 32 33 32 31 31 30 29 26 24 23 24 24 25 26 29 30 28 26 26 26 25 24 23 23 24 26 26 25 24 22 21 20 21 21 20 20 19 19 18 18 19 18 16 15 15 15 15 16 15 12 12 13 11 9 8 7 7 6 5 4 4 5 6 6 6 7 8
24 24 24 23 23 23 23 23 23 24 24 25 26 26 25 25 25 25 25 26 27 29 31 32 32 32 31 30 28 27 25 24 24 25 26 29 30 28 27 26 26 25 25 26 26 25 26 25 24 23 22 21 20 21 21 20 21 20 20 20 18 18 18 17 16 15 14 14 17 16 13 13 13 12 10 8 8 8 6 5 3 3 5 6 5 5 6 6
23 23 23 22 22 22 21 21 22 22 23 24 25 26 25 24 24 24 25 25 26 27 29 30 30 31 31 29 28 29 27 26 25 25 27 29 28 27 27 25 25 25 25 26 26 25 24 23 23 22 22 22 22 22 22 22 22 21 21 21 19 18 18 17 16 16 14 14 16 16 14 13 12 12 11 10 9 8 6 5 3 3 4 5 5 5 5 6
22 22 22 21 21 20 20 20 20 20 21 22 23 23 23 23 22 23 23 23 24 25 26 27 28 29 30 29 28 28 27 27 27 26 27 29 29 26 25 24 24 25 26 25 25 25 23 22 23 23 22 23 22 23 24 23 23 22 22 22 20 19 19 17 17 17 15 15 17 16 14 13 13 12 12 12 10 8 7 5 4 4 4 5 5 6 6 6
22 21 21 20 20 19 19 18 18 18 19 20 21 20 20 20 20 21 21 21 22 23 24 25 25 26 28 29 29 27 25 25 27 27 27 29 29 26 24 24 23 24 25 24 23 23 22 22 23 23 23 23 23 23 24 23 23 22 22 22 20 19 19 18 17 17 16 16 17 16 15 14 14 13 12 12 11 9 8 6 5 5 5 5 6 7 7 6
21 20 20 19 19 19 18 17 17 17 18 18 19 19 18 18 18 19 19 18 20 22 22 23 24 25 26 29 30 27 24 23 25 27 28 29 28 26 25 25 23 23 24 23 23 23 23 22 21 22 23 23 24 24 24 23 23 22 21 22 21 20 20 18 18 17 16 15 15 16 16 15 15 14 13 13 12 10 8 7 6 6 5 5 5 6 7 7
21 20 19 19 19 19 19 18 18 18 17 17 17 17 17 16 17 18 17 16 16 18 20 22 23 23 24 27 31 28 23 22 24 26 28 29 27 25 25 25 24 23 24 25 24 22 22 23 22 22 23 24 24 23 23 23 22 21 20 21 21 21 20 18 18 17 16 16 16 17 17 15 15 15 14 14 13 10 9 8 7 6 5 5 5 6 6 6
19 19 19 18 19 19 20 19 19 18 17 17 17 16 16 16 17 16 16 15 15 15 18 21 23 23 23 26 30 27 23 21 22 24 27 28 27 24 23 24 23 23 23 24 23 20 21 23 23 22 23 23 23 22 23 24 22 20 20 19 19 19 18 18 18 18 17 17 17 17 18 16 14 15 15 14 13 12 10 9 8 6 5 5 5 5 6 6
18 18 18 18 18 19 19 19 19 18 17 17 16 16 16 17 17 16 16 16 14 14 16 20 22 23 24 26 27 26 24 21 21 24 26 27 26 23 22 21 21 22 21 22 22 20 19 21 22 22 22 22 21 21 23 23 20 20 20 19 19 19 19 18 18 17 17 17 16 16 18 17 15 16 16 15 14 13 12 10 9 7 6 6 5 6 6 6
17 17 18 18 18 18 18 18 18 17 17 16 15 15 17 17 17 17 16 15 14 12 15 19 21 23 25 26 26 26 24 21 21 25 26 26 26 24 22 22 22 22 22 22 22 20 19 20 21 22 22 21 20 20 21 21 21 21 20 21 20 19 19 18 17 18 18 17 16 16 18 17 16 16 16 16 14 13 12 11 9 8 7 7 7 7 7 7
16 17 17 17 18 18 19 18 17 17 16 15 15 16 18 17 17 18 16 14 14 13 14 18 20 23 25 24 25 27 25 21 22 25 27 27 27 25 24 24 23 23 23 23 23 21 20 20 20 20 22 22 21 21 21 21 22 22 22 23 22 20 19 19 18 18 18 17 15 16 17 15 15 16 16 16 14 12 11 10 10 9 8 7 8 8 8 8
15 16 16 17 18 19 19 19 19 18 16 15 15 17 18 17 17 19 17 14 14 13 14 17 19 22 24 24 25 26 25 21 22 25 25 26 26 25 23 23 23 23 22 22 22 22 21 20 20 21 21 23 23 23 23 23 24 24 24 26 24 21 20 20 18 18 17 16 16 16 17 15 15 16 16 15 14 13 11 10 10 9 8 8 8 8 8 8
14 14 15 16 17 18 19 19 20 19 17 17 17 17 18 17 15 17 17 14 13 14 14 15 17 21 24 24 25 26 24 21 22 24 25 25 26 25 24 23 24 22 20 21 21 22 22 20 22 23 22 23 24 23 23 22 23 23 22 23 24 21 20 19 18 18 17 16 15 15 16 16 16 16 16 15 14 12 11 11 10 9 9 8 8 8 8 8
12 13 13 14 16 17 17 18 19 19 18 18 18 18 17 17 14 14 15 13 12 13 13 14 17 21 23 23 24 27 24 20 23 24 24 26 26 25 25 24 24 22 21 22 20 20 21 20 21 22 20 22 23 21 20 21 22 22 21 22 23 22 19 17 16 16 16 15 14 14 14 15 15 15 15 15 14 13 12 11 10 9 9 9 8 8 9 9
11 11 12 13 14 14 16 17 18 19 19 18 18 18 16 16 15 13 14 12 11 12 12 13 18 21 22 22 24 27 23 20 23 24 23 25 24 24 24 24 24 23 22 21 20 19 20 18 19 20 20 21 21 20 20 20 21 22 23 23 21 19 18 17 16 15 16 16 15 14 15 16 16 15 16 15 14 14 13 11 10 10 9 9 9 9 9 10
9 9 11 12 12 13 15 17 18 19 18 17 18 18 16 16 16 14 13 12 10 12 12 14 17 19 21 22 24 27 25 21 23 23 23 24 23 23 24 23 23 24 22 21 19 19 19 17 17 20 21 19 19 19 18 18 20 22 24 23 20 18 17 17 16 15 16 16 15 16 17 18 17 16 16 16 15 15 14 12 11 10 9 9 9 9 9 9
8 9 10 11 11 12 15 18 20 20 18 17 18 17 16 16 16 15 14 11 10 12 14 14 15 17 19 21 22 26 25 23 23 23 23 23 22 23 24 23 23 24 23 21 19 19 19 17 16 19 20 19 19 19 19 18 18 20 21 21 20 19 19 18 17 17 17 16 16 16 17 19 18 17 17 17 16 15 14 13 11 10 10 10 10 9 9 9
9 10 10 10 11 14 17 19 20 19 18 18 18 17 16 16 16 15 14 11 10 12 14 15 14 15 17 19 21 24 23 23 23 22 22 22 21 22 23 22 22 24 23 21 18 18 19 17 16 18 20 19 19 19 20 20 18 18 20 21 19 18 19 18 17 16 17 16 16 16 17 19 18 17 17 17 16 16 15 13 11 10 10 10 10 10 10 10
11 11 11 11 13 16 19 20 19 18 18 17 17 16 15 14 14 14 13 11 10 11 14 15 14 14 15 17 20 22 21 21 22 20 20 21 19 20 22 22 22 23 21 20 18 18 18 17 17 18 20 20 20 19 19 20 20 20 22 22 20 18 17 18 16 15 16 16 16 16 17 18 17 16 17 16 15 15 14 13 12 11 10 10 10 10 10 10
10 11 11 12 14 18 19 19 18 17 16 16 15 16 15 13 13 12 11 11 12 12 15 16 15 15 15 16 19 21 21 19 20 18 18 20 19 19 22 22 22 22 21 20 19 18 18 17 17 19 19 19 18 17 18 19 19 20 21 22 20 18 18 17 16 15 15 15 16 16 15 16 16 16 16 16 15 14 14 13 11 10 10 10 10 10 10 10
10 11 12 13 16 18 18 16 16 16 15 15 15 15 14 13 12 10 9 11 12 13 15 16 17 17 18 18 19 21 21 19 18 18 17 19 19 18 20 21 21 21 22 20 20 19 17 17 17 18 18 18 17 16 17 18 18 18 18 19 19 18 18 18 17 16 15 14 14 14 13 14 15 15 15 15 14 13 13 12 11 10 10 10 10 10 10 10
11 12 13 15 18 17 15 15 15 15 15 14 14 14 13 12 11 9 8 9 11 13 14 15 17 19 19 19 19 21 22 19 17 17 16 17 18 17 18 21 21 21 21 20 20 20 18 17 18 18 17 17 17 17 18 18 18 18 17 17 18 17 17 16 16 16 15 14 14 13 13 14 15 15 14 14 13 12 12 12 11 10 10 10 10 9 9 9
12 12 14 16 17 14 14 15 14 14 14 14 13 13 12 11 10 9 9 10 11 12 13 15 17 18 19 19 20 21 22 20 17 17 16 16 17 16 17 21 22 20 20 20 20 21 18 17 18 18 17 16 17 18 18 18 18 18 17 17 16 16 16 15 14 15 15 15 15 14 13 13 15 15 14 14 13 11 11 11 11 10 10 10 10 9 8 8
12 13 14 16 15 13 13 14 14 14 15 14 13 12 11 10 9 9 9 10 11 12 13 14 15 17 18 18 19 19 20 19 18 17 16 16 17 15 16 20 20 18 19 19 19 19 18 17 17 18 18 18 17 17 18 18 18 18 17 16 15 16 16 15 15 15 15 14 14 13 12 12 14 14 14 14 13 12 12 11 10 10 9 10 10 9 8 8
13 14 15 15 14 13 13 13 13 14 14 14 13 12 11 10 8 7 9 9 10 13 14 14 14 16 18 19 19 18 18 18 17 17 17 17 16 15 16 18 19 18 19 19 18 18 18 16 15 15 16 17 16 16 16 17 17 17 16 15 14 15 16 15 15 15 15 14 14 13 12 13 14 14 14 14 13 12 12 12 10 9 9 9 9 8 8 8
13 14 15 15 14 14 13 13 14 14 14 14 13 11 11 10 7 8 9 9 10 13 14 14 15 17 19 20 20 19 18 17 15 16 17 16 16 16 16 17 17 19 20 18 17 18 18 17 15 14 14 14 15 15 15 16 15 15 15 14 14 14 15 14 14 14 14 14 14 13 14 14 15 15 14 13 13 12 12 11 10 9 9 9 9 8 7 8
13 14 15 14 14 14 14 14 15 14 14 14 13 11 11 10 8 9 10 9 10 12 13 14 14 16 17 19 20 19 18 17 15 16 17 16 16 17 16 15 15 17 18 18 17 18 18 16 16 15 14 13 14 15 15 15 15 14 13 12 12 12 13 13 13 13 14 14 13 14 15 14 14 14 14 13 13 12 12 11 10 9 9 9 9 8 7 8
13 14 15 14 13 15 15 15 16 15 13 13 12 11 11 9 8 9 10 10 10 11 12 14 14 15 16 17 18 19 18 18 17 17 17 16 16 16 16 16 15 16 17 17 17 18 17 17 17 16 14 13 13 14 14 14 14 13 11 11 11 11 11 11 11 11 11 11 11 13 14 13 13 14 13 13 13 12 12 11 9 9 9 10 9 8 8 8
13 15 15 13 14 15 14 15 15 14 13 12 11 11 11 10 9 10 11 11 11 11 12 15 15 16 16 15 16 16 16 16 17 17 17 16 15 15 15 15 15 15 15 16 17 17 17 18 18 17 15 13 13 14 14 14 14 12 10 10 10 10 10 10 10 10 10 10 11 11 12 12 13 13 13 13 13 12 11 10 9 9 10 10 9 8 8 9
13 14 14 14 15 15 14 14 14 13 12 12 11 11 12 11 10 11 12 11 12 12 13 14 15 15 15 14 14 14 14 14 15 15 16 15 15 14 13 13 14 14 13 14 15 15 16 18 18 17 15 13 13 14 13 13 13 11 9 9 9 10 11 10 10 11 11 12 12 11 12 13 13 13 13 13 12 11 10 10 10 10 10 9 8 9 9 9
13 14 14 15 15 15 14 13 13 12 12 13 12 11 11 10 9 10 11 10 11 12 11 12 14 15 14 14 13 13 14 15 15 15 16 15 14 12 11 11 12 12 12 13 13 13 14 16 17 16 14 14 15 15 13 14 13 12 11 11 11 11 11 10 10 10 11 12 12 12 12 13 13 13 12 12 11 11 10 10 10 10 10 9 9 9 9 9
Wind_Direction
265 264 263 262 262 261 261 260 260 260 260 260 259 259 258 257 257 257 256 257 257 257 257 257 258 259 260 261 261 261 262 261 259 256 250 247 248 244 241 240 235 233 234 232 228 226 226 227 226 224 223 223 224 221 219 221 220 220 221 220 219 219 217 212 210 210 212 220 221 225 230 226 224 218 218 221 220 223 229 241 243 240 248 246 250 251 225 218
266 265 264 263 262 261 261 260 260 259 259 259 259 258 258 257 257 256 256 256 256 256 257 257 257 258 259 259 260 261 261 260 258 253 249 249 248 244 241 239 235 232 231 230 227 225 225 227 225 222 222 222 224 222 220 221 220 220 220 220 218 215 213 211 211 211 214 221 227 230 225 226 226 216 220 227 227 232 233 239 243 241 242 241 244 239 224 220
267 266 264 263 262 261 260 260 260 259 259 259 258 258 257 257 256 256 255 255 256 256 256 256 256 257 257 258 258 259 259 258 255 250 249 250 247 244 240 237 234 230 230 230 228 226 226 225 223 221 221 222 223 221 220 220 219 220 219 219 217 213 215 213 213 217 219 223 228 229 226 229 227 221 226 225 224 234 235 236 239 239 235 233 236 233 225 223
268 266 265 264 263 261 261 260 259 259 258 258 258 258 257 257 256 255 255 255 255 255 255 255 255 255 256 257 256 256 256 254 251 246 247 247 245 244 239 235 232 229 231 230 227 227 225 222 223 223 221 222 223 220 219 219 219 218 218 218 214 211 214 214 215 221 222 221 220 224 229 230 227 227 225 216 221 236 238 236 235 236 229 226 233 232 228 227
268 267 265 264 263 262 261 260 260 259 258 258 257 257 257 256 256 255 254 254 254 254 255 254 254 254 254 255 254 252 250 250 247 242 242 243 244 243 238 233 229 228 229 227 225 224 222 221 223 223 223 223 221 220 221 219 217 217 217 218 215 211 213 216 217 220 220 219 220 225 229 228 231 231 220 219 229 234 239 239 237 240 232 226 230 230 229 232
268 267 265 264 263 262 261 260 260 259 258 258 257 257 256 256 255 255 254 254 254 254 254 254 254 253 253 252 250 247 244 245 244 239 240 242 243 243 238 232 226 225 225 225 224 222 221 221 221 221 223 223 220 220 221 217 217 218 217 218 217 213 213 218 220 221 222 223 226 227 226 225 233 233 223 233 243 240 247 247 244 245 235 229 229 228 231 235
269 267 266 265 264 263 262 260 259 259 258 257 257 257 256 255 255 255 254 254 253 253 253 253 253 252 252 250 246 243 242 243 242 240 243 244 245 243 238 231 225 223 222 222 222 222 221 219 219 220 220 222 222 221 219 215 217 219 218 217 218 215 215 220 224 226 227 229 231 230 226 224 228 230 226 237 246 247 251 247 243 240 231 228 228 230 235 239
269 267 266 265 264 263 262 260 259 258 257 257 256 256 255 255 254 254 254 253 253 252 252 252 252 251 250 247 243 242 241 241 242 244 247 247 245 241 236 232 225 222 221 220 221 220 219 217 218 219 220 223 222 220 218 215 216 218 218 217 218 216 217 222 226 229 230 232 233 229 226 221 224 226 226 236 246 250 250 243 238 232 227 228 230 233 239 242
270 268 266 265 264 263 262 260 259 257 257 257 256 256 255 254 253 253 253 252 252 251 251 251 250 249 247 245 242 241 240 240 243 245 245 243 242 239 235 232 225 220 219 220 220 219 219 218 218 218 222 222 219 218 217 218 218 216 217 217 218 218 220 225 226 228 228 230 228 224 223 219 221 223 227 239 247 249 247 241 235 228 226 230 233 237 240 242
270 269 268 266 264 263 262 260 258 257 257 256 256 255 255 254 253 253 252 251 251 250 250 249 249 247 245 243 240 240 240 240 242 242 240 238 237 236 234 230 222 218 218 218 219 219 220 220 218 219 221 220 218 218 217 218 218 215 215 218 220 221 224 225 225 227 229 229 226 223 225 222 221 225 232 241 244 245 243 238 232 226 228 232 235 238 240 242
271 270 269 267 265 263 261 259 257 256 256 255 255 255 255 254 253 252 251 251 250 249 248 247 247 246 244 241 238 237 239 238 238 238 237 236 234 231 231 228 220 217 216 217 219 219 221 220 216 218 222 220 218 218 219 220 217 215 215 218 220 221 225 224 224 227 227 228 225 221 225 224 223 229 236 238 238 241 239 234 229 227 231 233 234 237 238 240
271 270 269 267 265 263 261 260 258 256 255 255 255 254 254 253 252 252 251 250 250 248 247 247 246 244 242 241 238 237 238 237 236 236 235 234 231 229 229 226 221 217 215 217 220 219 221 219 215 218 222 219 217 219 222 219 217 216 215 218 219 220 223 220 221 224 222 224 223 218 223 226 226 232 240 238 234 236 237 233 228 227 231 231 232 234 234 237
270 270 269 267 265 263 261 259 259 257 256 255 254 254 253 252 251 251 250 250 249 248 247 246 244 243 242 241 240 239 238 237 238 238 235 232 231 230 228 225 220 219 217 218 220 218 220 219 216 218 220 218 219 221 220 218 217 216 215 219 220 220 221 218 218 220 219 223 223 218 222 227 229 239 250 245 236 233 234 233 228 227 229 228 228 229 230 235
270 269 269 267 264 263 261 259 258 257 255 255 254 254 253 252 251 250 249 249 247 246 246 245 243 241 241 241 242 241 239 237 238 237 233 231 230 229 227 223 220 219 219 220 220 219 218 218 216 218 219 220 221 221 220 219 219 216 215 218 219 219 219 218 218 218 217 222 223 220 223 229 233 248 260 248 238 236 235 233 228 225 225 223 223 226 231 236
270 269 268 266 263 262 260 258 257 257 256 255 254 253 253 252 250 249 248 247 246 245 244 243 241 240 242 243 242 241 238 235 235 233 230 227 226 226 223 220 219 219 219 220 220 219 217 217 217 218 220 221 220 220 219 219 219 218 216 216 218 218 218 219 217 218 219 220 221 221 223 227 234 252 260 243 237 238 237 234 228 225 223 221 223 227 233 240
270 269 267 265 263 261 259 258 257 256 255 254 253 252 252 251 250 249 247 246 244 242 241 240 239 239 242 242 238 237 234 231 231 230 228 225 223 223 220 217 218 219 220 221 221 220 217 217 219 220 220 219 219 217 216 216 218 219 218 216 216 216 216 217 216 218 220 217 218 221 221 223 231 246 254 242 238 237 236 233 228 227 226 225 227 231 237 244
271 269 266 264 262 260 259 257 256 255 254 253 252 252 252 251 249 248 245 241 240 238 238 238 238 238 240 239 236 234 233 230 230 228 226 223 220 218 216 217 218 217 218 219 219 218 216 217 219 220 221 219 218 215 214 216 216 216 217 217 217 216 216 216 215 218 219 217 218 217 218 225 232 239 246 247 243 235 234 234 228 227 226 228 232 235 241 247
272 269 266 263 261 260 258 257 255 254 254 252 252 252 251 249 246 243 239 236 235 235 237 237 235 237 239 236 234 232 231 229 228 226 223 220 217 215 215 216 216 214 215 216 217 217 215 217 219 219 219 219 217 216 216 216 213 212 213 213 215 215 216 216 214 218 220 217 217 214 216 227 235 236 241 250 247 235 236 236 230 228 226 229 233 237 242 247
272 268 265 263 261 259 257 256 255 254 253 252 251 250 246 243 241 239 236 233 233 235 238 235 231 235 237 232 231 232 232 228 226 224 220 216 214 213 214 215 213 211 213 215 217 216 215 216 218 217 217 217 217 216 216 215 212 211 212 212 211 211 214 216 215 219 219 214 217 217 215 225 235 240 244 246 245 239 239 237 234 231 227 228 233 237 243 249
272 268 265 262 259 258 256 255 255 253 252 250 250 247 241 240 240 239 236 234 234 236 238 234 230 233 234 230 229 231 230 225 224 223 218 214 211 210 213 214 213 213 215 215 215 216 216 216 217 217 216 215 216 217 215 215 213 210 210 211 212 211 211 215 216 219 219 215 218 218 215 223 232 237 242 241 238 241 241 241 241 234 226 228 234 241 247 251
272 268 265 261 258 257 255 254 254 252 249 247 247 245 241 239 239 239 237 237 238 237 238 235 232 234 233 230 229 230 229 225 223 220 216 213 209 209 213 213 213 215 216 215 214 216 217 218 218 217 216 214 215 216 213 213 212 210 210 210 213 213 211 212 215 219 219 216 219 217 214 222 227 228 234 233 227 232 236 237 241 232 222 226 237 245 248 248
272 268 264 261 258 255 254 253 251 250 247 245 245 242 240 238 238 239 240 240 239 236 236 235 234 235 233 230 229 229 228 226 224 219 214 211 209 211 213 212 213 215 215 214 213 214 216 218 217 216 215 213 214 215 212 212 213 213 213 212 212 212 212 213 215 220 220 216 218 217 213 215 217 217 220 219 217 223 225 225 229 223 215 221 233 242 244 245
270 268 263 259 257 254 253 251 249 248 245 243 241 238 236 236 237 240 240 239 239 235 233 232 232 231 229 228 227 225 223 222 222 220 213 209 210 210 210 211 213 213 213 213 212 213 216 217 215 213 212 210 212 214 212 212 215 216 214 212 212 211 211 211 213 220 222 219 217 211 207 209 209 210 211 210 212 215 215 213 214 211 211 216 226 236 242 246
270 267 262 257 255 252 250 250 249 246 243 241 238 234 233 236 238 240 237 237 238 234 231 230 228 226 224 223 220 218 218 217 218 218 212 208 209 209 209 210 212 213 214 214 213 214 217 216 210 209 211 210 210 213 211 212 215 218 216 213 211 210 212 211 212 217 218 219 217 208 205 208 208 208 209 209 210 210 209 205 206 213 218 221 230 243 248 250
268 265 260 255 251 249 248 248 246 242 240 237 234 231 231 235 237 236 234 236 236 232 229 227 225 223 219 217 215 214 215 216 216 215 212 208 207 207 209 211 212 214 213 212 212 214 217 215 207 207 212 210 209 212 213 213 214 218 218 215 211 208 211 210 211 215 213 215 217 214 212 212 210 206 206 209 208 206 205 200 208 221 228 232 242 255 258 259
266 262 257 251 247 246 245 243 238 237 238 234 229 227 228 232 234 232 231 235 236 229 224 221 220 218 213 212 211 209 213 216 214 213 210 208 207 207 208 210 214 214 210 209 212 215 216 214 210 209 210 209 210 213 215 214 213 217 217 213 209 207 209 210 211 215 216 215 215 217 216 211 209 207 207 209 204 202 204 203 212 220 228 238 247 258 262 266
263 258 253 247 243 242 239 235 234 237 235 229 225 223 228 232 230 226 226 233 234 225 219 218 216 212 210 209 204 204 212 212 208 210 209 205 206 207 208 209 212 212 210 209 212 215 212 210 212 211 209 211 212 213 214 213 213 217 215 208 206 207 209 210 212 215 217 215 211 215 215 208 208 209 209 208 203 201 205 206 214 220 230 244 254 262 263 266
259 254 249 243 240 237 233 232 234 234 229 224 223 224 229 230 221 218 221 226 227 219 214 214 211 208 208 205 200 203 209 205 205 208 205 203 205 207 208 209 209 207 209 209 211 214 211 209 210 209 210 214 214 212 212 211 214 217 212 206 206 208 208 210 213 214 216 215 209 211 213 208 210 213 210 209 206 203 205 206 211 219 235 249 259 266 267 268
254 248 244 241 239 235 231 231 230 228 225 223 224 227 228 220 212 214 218 219 219 216 211 207 206 204 202 199 200 203 204 204 207 204 199 202 205 207 208 208 206 204 208 212 212 213 215 213 210 209 212 215 213 212 210 210 215 213 206 204 207 208 209 211 213 212 213 216 210 207 212 211 211 214 212 210 210 208 208 209 213 221 234 248 263 274 277 277
249 243 241 239 237 232 229 228 226 225 224 222 223 226 218 209 208 211 214 214 214 213 207 203 203 201 197 196 200 203 202 204 204 197 197 201 203 206 206 205 205 204 208 212 211 214 217 214 213 214 214 212 210 211 211 211 211 205 201 202 203 206 210 211 212 212 212 215 210 208 214 214 211 215 215 212 212 211 211 212 218 226 237 250 265 278 283 285
243 238 237 235 232 229 227 225 222 220 218 219 221 218 208 205 209 211 209 210 210 209 204 201 199 197 195 195 197 199 201 202 199 195 197 199 200 203 202 202 204 204 207 210 210 214 216 212 215 217 213 208 206 207 211 212 208 205 204 202 200 203 207 208 208 212 213 213 209 209 214 215 213 214 213 210 209 210 211 214 219 226 237 250 263 276 282 284
239 235 236 234 230 227 223 220 216 212 214 219 217 209 203 205 211 211 209 207 208 208 201 196 196 195 195 195 194 195 197 199 199 197 196 198 200 202 203 204 203 202 205 207 208 212 213 212 215 215 209 205 204 203 206 209 208 207 203 199 198 200 203 205 207 210 213 212 209 210 214 214 211 210 208 207 207 208 211 214 219 225 234 248 263 275 280 284
234 233 235 233 228 225 221 219 217 215 216 216 209 203 204 207 209 208 207 205 202 203 198 195 198 196 194 194 193 193 195 197 198 197 197 198 199 202 206 208 204 204 206 205 206 209 211 215 215 209 206 204 202 202 203 204 205 204 201 199 200 201 202 204 206 210 212 210 209 214 215 210 208 210 209 207 206 205 208 214 218 224 233 246 261 271 277 284
230 231 233 231 226 222 219 217 216 213 212 208 201 200 204 204 203 202 203 204 201 200 198 197 198 194 192 193 192 190 194 197 197 196 196 198 199 202 205 207 206 206 205 203 206 207 208 214 211 205 204 203 202 204 203 201 202 203 202 202 203 204 205 205 206 208 209 206 208 214 215 211 210 212 209 207 206 204 209 216 220 227 236 245 258 268 276 283
229 229 228 225 219 215 211 209 207 203 201 199 196 198 200 196 194 195 197 200 198 197 198 198 196 191 190 192 191 191 195 198 195 195 197 198 200 202 203 205 206 205 203 202 206 207 207 213 210 203 204 202 201 204 200 196 200 202 202 203 204 205 204 204 207 209 206 206 210 215 216 214 214 212 208 208 210 208 211 219 224 232 240 249 259 268 276 281
225 222 217 211 207 203 199 197 195 192 191 192 192 194 194 189 188 189 189 191 191 194 197 193 188 186 187 189 190 193 197 197 193 195 198 199 200 202 202 204 204 203 203 202 204 204 204 207 207 202 202 202 200 198 198 199 200 200 201 202 203 203 201 201 205 209 208 208 213 216 214 211 212 214 212 212 215 217 218 221 228 237 244 253 262 267 274 280
214 210 203 199 196 191 188 186 184 183 184 186 187 188 187 186 187 183 181 182 182 185 186 182 181 184 187 188 189 192 194 193 194 197 197 198 201 202 202 204 202 201 202 202 204 205 202 200 203 201 199 200 200 194 197 203 201 199 201 200 198 201 204 204 205 209 211 211 215 218 214 211 214 219 217 216 220 224 226 227 230 241 249 255 262 267 275 282
194 191 189 189 184 179 179 177 176 177 179 181 185 186 186 187 186 181 178 180 178 177 180 179 181 185 187 188 188 190 191 192 194 196 195 198 202 201 200 201 200 200 200 201 203 203 200 196 198 200 196 195 197 195 195 201 203 202 199 197 199 203 205 206 207 210 210 211 216 216 216 218 221 223 220 219 221 225 231 234 234 243 251 254 261 269 276 282
173 172 172 173 171 168 168 169 171 175 179 181 183 185 184 186 187 183 178 180 180 178 179 181 181 184 188 189 187 188 190 191 191 193 195 198 200 199 199 199 197 198 198 197 198 198 197 196 195 196 197 195 197 199 197 197 198 198 195 197 203 207 206 207 210 213 211 212 216 215 219 225 226 227 226 222 222 225 231 234 233 238 246 252 262 270 275 280
158 162 163 164 167 165 163 165 169 174 177 179 180 181 181 182 184 181 177 180 186 184 183 185 185 186 187 187 186 186 187 187 187 191 195 195 194 196 198 197 193 193 193 193 195 193 194 196 191 190 194 195 196 200 200 197 194 194 194 195 200 204 206 207 211 216 215 214 216 218 224 227 226 229 228 222 223 227 229 228 228 234 243 252 263 269 273 278
157 161 161 162 163 160 159 162 168 172 174 175 177 179 180 180 179 181 185 190 191 189 190 194 195 192 187 185 185 184 183 183 184 188 191 192 192 193 195 195 191 189 188 190 193 191 191 192 188 185 189 191 194 199 201 199 197 196 197 198 200 202 203 205 212 218 217 217 218 220 227 227 226 230 227 222 225 229 228 227 229 235 242 251 259 265 270 276
159 158 157 158 158 156 158 161 165 169 171 172 173 175 177 177 176 182 193 194 192 191 193 197 198 195 190 187 185 182 181 181 182 185 187 188 191 192 192 192 189 186 187 189 191 190 188 187 183 182 185 188 191 194 194 194 193 193 196 201 204 206 207 209 213 215 215 217 218 221 227 226 225 227 225 224 226 227 229 231 231 235 241 247 255 261 268 274
152 152 150 153 154 155 157 159 162 166 167 167 170 172 172 173 175 180 187 185 183 185 189 191 192 190 188 186 184 182 181 180 181 185 185 184 187 191 192 190 187 186 187 188 189 189 188 185 180 178 183 186 187 190 191 192 192 192 196 203 206 209 211 213 216 214 212 214 216 221 228 227 223 223 223 223 223 225 231 232 230 234 240 246 253 259 268 275
147 148 147 150 153 153 156 159 160 162 164 164 166 167 167 170 174 179 182 180 180 183 186 187 185 183 184 183 182 182 182 180 179 182 183 183 184 186 188 187 186 186 188 189 189 189 189 187 183 179 181 184 185 188 191 192 195 197 200 206 210 209 209 212 215 214 213 217 219 222 228 227 222 218 219 221 221 224 231 233 233 235 240 248 254 259 268 277
147 144 144 150 154 155 157 159 158 158 160 161 161 161 160 160 163 169 175 180 187 189 182 181 182 181 180 180 177 179 181 180 179 179 180 180 180 182 182 183 186 187 187 185 184 184 186 187 187 187 188 189 189 192 193 193 196 200 204 209 212 212 213 214 213 213 216 218 221 226 226 220 216 214 216 219 221 222 227 230 233 236 240 249 255 260 267 276
147 144 146 152 156 158 158 158 157 157 157 157 157 156 155 153 154 163 169 173 183 179 169 170 180 182 179 176 172 173 176 177 178 177 176 176 178 180 178 177 180 179 176 175 178 183 185 185 186 189 189 191 193 194 196 197 196 200 205 210 214 216 220 219 216 218 218 215 221 229 220 208 209 211 212 216 219 221 226 229 231 234 242 249 253 257 267 275
145 145 148 150 152 154 155 154 155 154 153 154 153 150 150 153 152 153 155 153 155 157 157 165 175 176 175 172 170 170 171 171 171 172 173 174 174 175 174 173 176 175 173 177 183 186 186 185 184 181 179 184 187 187 190 193 194 196 202 207 213 217 219 219 219 223 220 217 224 225 213 206 208 210 210 214 217 219 224 229 230 232 239 247 250 256 269 279
142 145 148 147 147 148 148 150 151 150 149 148 146 142 143 149 149 140 139 138 139 146 153 160 164 167 169 170 169 168 168 167 168 170 172 172 172 172 172 172 177 179 179 182 187 187 186 186 186 179 173 176 180 181 183 185 187 190 195 202 210 214 215 216 222 230 229 228 227 216 208 208 210 209 210 213 214 215 220 225 229 231 237 246 253 260 272 281
140 143 146 144 144 145 145 145 146 146 145 141 138 138 139 143 146 136 127 127 129 137 147 150 152 155 159 163 165 165 168 169 169 172 173 170 169 171 171 172 176 180 181 183 187 190 189 186 184 181 174 173 179 181 183 184 184 186 190 197 203 204 205 208 214 221 222 221 215 205 205 212 214 212 211 210 211 215 220 226 230 234 242 250 256 264 271 277
140 141 142 141 142 144 142 142 144 145 143 137 136 140 139 136 137 130 124 125 122 121 134 144 145 145 148 154 158 163 170 171 169 170 173 170 167 169 172 174 176 176 181 186 189 193 193 188 189 189 184 182 185 183 183 185 183 184 191 201 205 206 208 211 214 216 214 211 207 202 205 215 218 213 210 209 212 217 223 227 232 238 246 253 258 265 270 275
143 144 143 142 142 141 141 143 145 145 142 137 137 142 139 135 132 128 124 123 118 116 127 137 138 140 146 147 149 159 167 165 162 164 168 167 166 167 170 173 175 176 179 185 190 195 195 191 194 197 192 192 195 191 189 192 189 190 201 212 217 218 219 223 227 227 221 211 206 208 213 218 216 211 210 213 216 220 225 228 232 240 247 253 258 265 271 276
143 146 145 145 143 141 142 144 144 145 143 141 141 142 141 139 136 134 131 123 117 118 127 133 131 134 143 144 148 161 161 152 150 153 155 154 153 156 161 163 168 175 179 182 186 193 194 191 194 198 194 195 202 204 205 208 206 208 217 224 223 218 215 220 228 230 223 215 214 219 219 216 212 210 212 215 218 222 228 231 235 241 248 254 258 263 270 275